| time (UTC) | temp F | wind direction | speed MPH | gust MPH | rain 1hr in | rain 24hr in | rain mn in | humidity % | barometer mb |
| 20260902072133 | 58 | 288 | 0.0 | 1.0 | 0.00 | 0.00 | 0.00 | 42 | 1017.0 |
| 20260902071732 | 58 | 274 | 0.0 | 0.0 | 0.00 | 0.00 | 0.00 | 42 | 1017.1 |
| 20260902071613 | 58 | 270 | 0.0 | 0.0 | 0.00 | 0.00 | 0.00 | 42 | 1017.0 |
| 20260902071331 | 58 | 274 | 0.0 | 0.0 | 0.00 | 0.00 | 0.00 | 42 | 1017.0 |
| 20260902070929 | 58 | 270 | 0.0 | 0.0 | 0.00 | 0.00 | 0.00 | 42 | 1017.0 |
| 20260902070528 | 58 | 283 | 0.0 | 0.0 | 0.00 | 0.00 | 0.00 | 41 | 1017.0 |
| 20260902070127 | 58 | 237 | 0.0 | 0.0 | 0.00 | 0.00 | 0.00 | 41 | 1017.0 |
| 20260902065725 | 59 | 227 | 0.0 | 0.0 | 0.00 | 0.00 | 0.00 | 41 | 1017.0 |
| 20260902065324 | 59 | 237 | 0.0 | 0.0 | 0.00 | 0.00 | 0.00 | 41 | 1016.9 |
| 20260902064924 | 59 | 290 | 0.0 | 0.0 | 0.00 | 0.00 | 0.00 | 41 | 1016.9 |
| 20260902064121 | 59 | 306 | 0.0 | 0.0 | 0.00 | 0.00 | 0.00 | 41 | 1016.8 |
| 20260902063317 | 59 | 310 | 0.0 | 0.0 | 0.00 | 0.00 | 0.00 | 41 | 1016.7 |
| 20260902062515 | 60 | 326 | 0.0 | 0.0 | 0.00 | 0.00 | 0.00 | 41 | 1016.7 |
| 20260902061713 | 60 | 292 | 0.0 | 0.0 | 0.00 | 0.00 | 0.00 | 40 | 1016.7 |
| 20260902061312 | 61 | 195 | 0.0 | 0.0 | 0.00 | 0.00 | 0.00 | 40 | 1016.7 |
| 20260902060910 | 61 | 189 | 0.0 | 1.0 | 0.00 | 0.00 | 0.00 | 40 | 1016.8 |
| 20260902060509 | 61 | 186 | 0.0 | 0.0 | 0.00 | 0.00 | 0.00 | 40 | 1016.7 |
| 20260902060107 | 61 | 279 | 0.0 | 0.0 | 0.00 | 0.00 | 0.00 | 40 | 1016.6 |
| 20260902055706 | 61 | 283 | 0.0 | 0.0 | 0.00 | 0.00 | 0.00 | 39 | 1016.6 |
| 20260902055307 | 61 | 279 | 0.0 | 1.0 | 0.00 | 0.00 | 0.00 | 39 | 1016.7 |
| 20260902054904 | 61 | 233 | 0.0 | 1.0 | 0.00 | 0.00 | 0.00 | 39 | 1016.6 |
| 20260902054101 | 62 | 279 | 1.0 | 1.0 | 0.00 | 0.00 | 0.00 | 39 | 1016.6 |
| 20260902053700 | 62 | 292 | 0.0 | 0.0 | 0.00 | 0.00 | 0.00 | 39 | 1016.6 |
| 20260902053259 | 62 | 274 | 0.0 | 0.0 | 0.00 | 0.00 | 0.00 | 38 | 1016.7 |
| 20260902052858 | 62 | 288 | 0.0 | 0.0 | 0.00 | 0.00 | 0.00 | 38 | 1016.6 |
| 20260902052456 | 62 | 38 | 0.0 | 0.0 | 0.00 | 0.00 | 0.00 | 38 | 1016.7 |
| 20260902052054 | 63 | 42 | 0.0 | 1.0 | 0.00 | 0.00 | 0.00 | 38 | 1016.6 |
| 20260902050049 | 64 | 312 | 0.0 | 0.0 | 0.00 | 0.00 | 0.00 | 37 | 1016.6 |
| 20260902045647 | 64 | 299 | 0.0 | 0.0 | 0.00 | 0.00 | 0.00 | 37 | 1016.6 |
| 20260902044844 | 64 | 315 | 0.0 | 0.0 | 0.00 | 0.00 | 0.00 | 36 | 1016.6 |
| 20260902044443 | 65 | 301 | 0.0 | 0.0 | 0.00 | 0.00 | 0.00 | 36 | 1016.5 |
| 20260902044042 | 65 | 274 | 0.0 | 0.0 | 0.00 | 0.00 | 0.00 | 36 | 1016.4 |
| 20260902043641 | 65 | 290 | 0.0 | 1.0 | 0.00 | 0.00 | 0.00 | 35 | 1016.3 |
| 20260902043239 | 66 | 182 | 1.0 | 1.0 | 0.00 | 0.00 | 0.00 | 35 | 1016.3 |
| 20260902042838 | 66 | 230 | 0.0 | 2.0 | 0.00 | 0.00 | 0.00 | 35 | 1016.3 |
| 20260902042437 | 66 | 279 | 0.0 | 1.0 | 0.00 | 0.00 | 0.00 | 35 | 1016.3 |
| 20260902042036 | 66 | 297 | 0.0 | 0.0 | 0.00 | 0.00 | 0.00 | 35 | 1016.2 |
| 20260902041236 | 67 | 301 | 0.0 | 0.0 | 0.00 | 0.00 | 0.00 | 34 | 1016.0 |
| 20260902040831 | 67 | 279 | 0.0 | 0.0 | 0.00 | 0.00 | 0.00 | 34 | 1016.0 |
| 20260902040430 | 67 | 270 | 0.0 | 0.0 | 0.00 | 0.00 | 0.00 | 34 | 1016.0 |
| 20260902040030 | 67 | 184 | 1.0 | 2.0 | 0.00 | 0.00 | 0.00 | 33 | 1015.9 |
| 20260902035628 | 67 | 76 | 1.0 | 2.0 | 0.00 | 0.00 | 0.00 | 33 | 1015.9 |
| 20260902034825 | 67 | 135 | 2.0 | 2.0 | 0.00 | 0.00 | 0.00 | 32 | 1015.7 |
| 20260902034424 | 67 | 92 | 1.0 | 2.0 | 0.00 | 0.00 | 0.00 | 32 | 1015.6 |
| 20260902034023 | 67 | 135 | 2.0 | 3.0 | 0.00 | 0.00 | 0.00 | 32 | 1015.6 |
| 20260902033220 | 68 | 83 | 4.0 | 4.0 | 0.00 | 0.00 | 0.00 | 31 | 1015.4 |
| 20260902032819 | 68 | 121 | 3.0 | 5.0 | 0.00 | 0.00 | 0.00 | 31 | 1015.4 |
| 20260902032419 | 0 | 78 | 3.0 | 0.0 | 0.00 | 0.00 | 0.00 | ||
| 20260902032020 | 69 | 83 | 3.0 | 3.0 | 0.00 | 0.00 | 0.00 | 30 | 1015.4 |
| 20260902030847 | 70 | 135 | 2.0 | 5.0 | 0.00 | 0.00 | 0.00 | 29 | 1015.3 |
| 20260902030812 | 70 | 135 | 2.0 | 5.0 | 0.00 | 0.00 | 0.00 | 29 | 1015.3 |
| 20260902030447 | 70 | 137 | 3.0 | 6.0 | 0.00 | 0.00 | 0.00 | 29 | 1015.3 |
| 20260902030411 | 70 | 137 | 3.0 | 6.0 | 0.00 | 0.00 | 0.00 | 29 | 1015.3 |
| 20260902030010 | 70 | 137 | 3.0 | 5.0 | 0.00 | 0.00 | 0.00 | 28 | 1015.3 |
| 20260902025608 | 70 | 121 | 3.0 | 7.0 | 0.00 | 0.00 | 0.00 | 28 | 1015.3 |
| 20260902024806 | 71 | 139 | 6.0 | 7.0 | 0.00 | 0.00 | 0.00 | 27 | 1015.1 |
| 20260902024405 | 72 | 123 | 5.0 | 6.0 | 0.00 | 0.00 | 0.00 | 26 | 1015.0 |
| 20260902023602 | 73 | 105 | 6.0 | 6.0 | 0.00 | 0.00 | 0.00 | 25 | 1014.9 |
| 20260902023200 | 73 | 128 | 5.0 | 7.0 | 0.00 | 0.00 | 0.00 | 24 | 1014.8 |
| 20260902022759 | 74 | 132 | 7.0 | 7.0 | 0.00 | 0.00 | 0.00 | 24 | 1014.8 |
| 20260902021957 | 75 | 117 | 4.0 | 6.0 | 0.00 | 0.00 | 0.00 | 23 | 1014.8 |
| 20260902021556 | 76 | 114 | 3.0 | 5.0 | 0.00 | 0.00 | 0.00 | 23 | 1014.7 |
| 20260902021155 | 76 | 101 | 2.0 | 4.0 | 0.00 | 0.00 | 0.00 | 22 | 1014.8 |
| 20260902020753 | 76 | 135 | 3.0 | 5.0 | 0.00 | 0.00 | 0.00 | 21 | 1014.7 |
| 20260902015543 | 79 | 153 | 3.0 | 5.0 | 0.00 | 0.00 | 0.00 | 20 | 1014.7 |
| 20260902014741 | 81 | 186 | 3.0 | 6.0 | 0.00 | 0.00 | 0.00 | 20 | 1014.6 |
| 20260902013938 | 82 | 182 | 3.0 | 9.0 | 0.00 | 0.00 | 0.00 | 19 | 1014.7 |
| 20260902013537 | 82 | 182 | 4.0 | 6.0 | 0.00 | 0.00 | 0.00 | 19 | 1014.7 |
| 20260902013136 | 82 | 167 | 3.0 | 6.0 | 0.00 | 0.00 | 0.00 | 18 | 1014.8 |
| 20260902012735 | 83 | 186 | 6.0 | 6.0 | 0.00 | 0.00 | 0.00 | 18 | 1014.8 |
| 20260902012333 | 83 | 184 | 5.0 | 7.0 | 0.00 | 0.00 | 0.00 | 18 | 1014.8 |
| 20260902011931 | 83 | 180 | 5.0 | 7.0 | 0.00 | 0.00 | 0.00 | 18 | 1014.7 |
| 20260902011534 | 83 | 130 | 2.0 | 5.0 | 0.00 | 0.00 | 0.00 | 18 | 1014.7 |
| 20260902011129 | 83 | 153 | 4.0 | 6.0 | 0.00 | 0.00 | 0.00 | 18 | 1014.8 |
| 20260902010728 | 83 | 189 | 5.0 | 6.0 | 0.00 | 0.00 | 0.00 | 18 | 1014.8 |
| 20260902010327 | 84 | 144 | 4.0 | 5.0 | 0.00 | 0.00 | 0.00 | 18 | 1014.9 |
| 20260902005925 | 83 | 139 | 5.0 | 8.0 | 0.00 | 0.00 | 0.00 | 18 | 1014.9 |
| 20260902005523 | 83 | 141 | 6.0 | 9.0 | 0.00 | 0.00 | 0.00 | 18 | 1014.9 |
| 20260902004721 | 84 | 130 | 8.0 | 8.0 | 0.00 | 0.00 | 0.00 | 17 | 1014.9 |
| 20260902004320 | 84 | 135 | 8.0 | 8.0 | 0.00 | 0.00 | 0.00 | 17 | 1015.0 |
| 20260902003920 | 84 | 135 | 7.0 | 9.0 | 0.00 | 0.00 | 0.00 | 17 | 1015.0 |
| 20260902003517 | 84 | 132 | 8.0 | 9.0 | 0.00 | 0.00 | 0.00 | 16 | 1015.1 |
| 20260902003116 | 85 | 164 | 8.0 | 11.0 | 0.00 | 0.00 | 0.00 | 16 | 1015.1 |
| 20260902002314 | 85 | 146 | 10.0 | 10.0 | 0.00 | 0.00 | 0.00 | 16 | 1015.0 |
| 20260902001912 | 85 | 144 | 6.0 | 9.0 | 0.00 | 0.00 | 0.00 | 17 | 1015.0 |
| 20260902001110 | 87 | 135 | 10.0 | 10.0 | 0.00 | 0.00 | 0.00 | 16 | 1015.0 |
| 20260902000312 | 88 | 197 | 4.0 | 8.0 | 0.00 | 0.00 | 0.00 | 17 | 1015.0 |
| 20260901234302 | 89 | 135 | 9.0 | 10.0 | 0.00 | 0.00 | 0.00 | 16 | 1014.9 |
| 20260901233859 | 89 | 153 | 3.0 | 10.0 | 0.00 | 0.00 | 0.00 | 16 | 1015.0 |
| 20260901233458 | 89 | 141 | 10.0 | 10.0 | 0.00 | 0.00 | 0.00 | 16 | 1015.0 |
| 20260901233057 | 90 | 157 | 6.0 | 8.0 | 0.00 | 0.00 | 0.00 | 16 | 1015.0 |
| 20260901232255 | 90 | 177 | 4.0 | 12.0 | 0.00 | 0.00 | 0.00 | 15 | 1015.1 |
| 20260901231853 | 90 | 173 | 6.0 | 8.0 | 0.00 | 0.00 | 0.00 | 15 | 1015.1 |
| 20260901231452 | 90 | 191 | 4.0 | 9.0 | 0.00 | 0.00 | 0.00 | 15 | 1015.1 |
| 20260901231050 | 89 | 182 | 3.0 | 9.0 | 0.00 | 0.00 | 0.00 | 15 | 1015.2 |
| 20260901230248 | 89 | 135 | 9.0 | 10.0 | 0.00 | 0.00 | 0.00 | 15 | 1015.3 |
| 20260901225847 | 90 | 135 | 9.0 | 11.0 | 0.00 | 0.00 | 0.00 | 15 | 1015.2 |
| 20260901225445 | 90 | 193 | 6.0 | 11.0 | 0.00 | 0.00 | 0.00 | 14 | 1015.3 |
| 20260901225044 | 90 | 135 | 8.0 | 12.0 | 0.00 | 0.00 | 0.00 | 14 | 1015.3 |
| 20260901224643 | 90 | 153 | 7.0 | 11.0 | 0.00 | 0.00 | 0.00 | 14 | 1015.4 |
| 20260901224242 | 91 | 165 | 5.0 | 11.0 | 0.00 | 0.00 | 0.00 | 14 | 1015.4 |
| 20260901223840 | 92 | 141 | 7.0 | 10.0 | 0.00 | 0.00 | 0.00 | 14 | 1015.5 |
| 20260901223037 | 90 | 148 | 7.0 | 11.0 | 0.00 | 0.00 | 0.00 | 15 | 1015.3 |
| 20260901222636 | 91 | 145 | 7.0 | 11.0 | 0.00 | 0.00 | 0.00 | 14 | 1015.4 |
| 20260901222235 | 92 | 139 | 9.0 | 12.0 | 0.00 | 0.00 | 0.00 | 15 | 1015.3 |
| 20260901221834 | 92 | 135 | 9.0 | 11.0 | 0.00 | 0.00 | 0.00 | 14 | 1015.4 |
| 20260901221433 | 93 | 168 | 6.0 | 9.0 | 0.00 | 0.00 | 0.00 | 15 | 1015.4 |
| 20260901221034 | 93 | 150 | 8.0 | 9.0 | 0.00 | 0.00 | 0.00 | 14 | 1015.5 |
| 20260901220629 | 94 | 150 | 6.0 | 15.0 | 0.00 | 0.00 | 0.00 | 15 | 1015.5 |
| 20260901220228 | 94 | 146 | 2.0 | 9.0 | 0.00 | 0.00 | 0.00 | 14 | 1015.5 |
| 20260901215827 | 94 | 175 | 7.0 | 7.0 | 0.00 | 0.00 | 0.00 | 14 | 1015.6 |
| 20260901215426 | 94 | 123 | 6.0 | 8.0 | 0.00 | 0.00 | 0.00 | 15 | 1015.6 |
| 20260901215025 | 95 | 146 | 5.0 | 9.0 | 0.00 | 0.00 | 0.00 | 15 | 1015.7 |
| 20260901214623 | 94 | 175 | 9.0 | 10.0 | 0.00 | 0.00 | 0.00 | 14 | 1015.8 |
| 20260901213821 | 93 | 173 | 5.0 | 9.0 | 0.00 | 0.00 | 0.00 | 15 | 1015.8 |
| 20260901213420 | 93 | 177 | 8.0 | 8.0 | 0.00 | 0.00 | 0.00 | 15 | 1015.9 |
| 20260901213020 | 93 | 177 | 5.0 | 9.0 | 0.00 | 0.00 | 0.00 | 16 | 1015.9 |
| 20260901212617 | 94 | 142 | 5.0 | 9.0 | 0.00 | 0.00 | 0.00 | 15 | 1015.9 |
| 20260901212216 | 93 | 184 | 6.0 | 9.0 | 0.00 | 0.00 | 0.00 | 16 | 1016.0 |
| 20260901211814 | 93 | 137 | 10.0 | 10.0 | 0.00 | 0.00 | 0.00 | 16 | 1016.0 |
| 20260901211413 | 94 | 180 | 5.0 | 12.0 | 0.00 | 0.00 | 0.00 | 17 | 1016.0 |
| 20260901211012 | 96 | 176 | 4.0 | 8.0 | 0.00 | 0.00 | 0.00 | 17 | 1015.9 |
| 20260901210611 | 95 | 180 | 6.0 | 7.0 | 0.00 | 0.00 | 0.00 | 17 | 1016.1 |
| 20260901205812 | 94 | 165 | 5.0 | 8.0 | 0.00 | 0.00 | 0.00 | 18 | 1016.1 |
| 20260901205408 | 94 | 144 | 4.0 | 9.0 | 0.00 | 0.00 | 0.00 | 19 | 1016.2 |
| 20260901205006 | 94 | 137 | 4.0 | 10.0 | 0.00 | 0.00 | 0.00 | 19 | 1016.3 |
| 20260901204604 | 94 | 177 | 4.0 | 9.0 | 0.00 | 0.00 | 0.00 | 20 | 1016.3 |
| 20260901204203 | 94 | 155 | 7.0 | 9.0 | 0.00 | 0.00 | 0.00 | 20 | 1016.3 |
| 20260901203802 | 93 | 162 | 4.0 | 9.0 | 0.00 | 0.00 | 0.00 | 20 | 1016.4 |
| 20260901203402 | 94 | 173 | 7.0 | 8.0 | 0.00 | 0.00 | 0.00 | 20 | 1016.3 |
| 20260901202203 | 93 | 32 | 1.0 | 8.0 | 0.00 | 0.00 | 0.00 | 20 | 1016.5 |
| 20260901202201 | 93 | 32 | 1.0 | 8.0 | 0.00 | 0.00 | 0.00 | 20 | 1016.5 |
| 20260901201756 | 93 | 199 | 4.0 | 8.0 | 0.00 | 0.00 | 0.00 | 22 | 1016.6 |
| 20260901201354 | 93 | 191 | 8.0 | 9.0 | 0.00 | 0.00 | 0.00 | 23 | 1016.6 |
| 20260901200955 | 93 | 151 | 3.0 | 7.0 | 0.00 | 0.00 | 0.00 | 23 | 1016.7 |
| 20260901200551 | 93 | 174 | 3.0 | 7.0 | 0.00 | 0.00 | 0.00 | 23 | 1016.6 |
| 20260901195749 | 91 | 186 | 3.0 | 9.0 | 0.00 | 0.00 | 0.00 | 24 | 1016.7 |
| 20260901195348 | 92 | 157 | 2.0 | 9.0 | 0.00 | 0.00 | 0.00 | 24 | 1016.8 |
| 20260901194947 | 91 | 162 | 3.0 | 9.0 | 0.00 | 0.00 | 0.00 | 25 | 1016.8 |
| 20260901194545 | 89 | 192 | 6.0 | 12.0 | 0.00 | 0.00 | 0.00 | 25 | 1016.8 |
| 20260901194143 | 88 | 171 | 4.0 | 9.0 | 0.00 | 0.00 | 0.00 | 25 | 1016.9 |
| 20260901193742 | 87 | 128 | 8.0 | 14.0 | 0.00 | 0.00 | 0.00 | 25 | 1016.8 |
| 20260901193342 | 89 | 139 | 9.0 | 11.0 | 0.00 | 0.00 | 0.00 | 26 | 1016.9 |
| 20260901192940 | 89 | 200 | 4.0 | 11.0 | 0.00 | 0.00 | 0.00 | 26 | 1017.0 |
| 20260901192539 | 89 | 166 | 2.0 | 8.0 | 0.00 | 0.00 | 0.00 | 26 | 1017.0 |
| 20260901192138 | 88 | 135 | 9.0 | 10.0 | 0.00 | 0.00 | 0.00 | 26 | 1017.0 |
| 20260901191736 | 89 | 177 | 3.0 | 7.0 | 0.00 | 0.00 | 0.00 | 27 | 1017.0 |
| 20260901191334 | 89 | 148 | 7.0 | 8.0 | 0.00 | 0.00 | 0.00 | 27 | 1017.0 |
| 20260901190933 | 88 | 182 | 8.0 | 10.0 | 0.00 | 0.00 | 0.00 | 27 | 1017.1 |
| 20260901190532 | 86 | 108 | 8.0 | 8.0 | 0.00 | 0.00 | 0.00 | 27 | 1017.0 |
| 20260901190131 | 85 | 135 | 7.0 | 10.0 | 0.00 | 0.00 | 0.00 | 28 | 1017.0 |
| 20260901184927 | 86 | 148 | 3.0 | 8.0 | 0.00 | 0.00 | 0.00 | 28 | 1017.0 |
| 20260901184526 | 87 | 137 | 5.0 | 7.0 | 0.00 | 0.00 | 0.00 | 28 | 1017.1 |
| 20260901184124 | 86 | 155 | 5.0 | 8.0 | 0.00 | 0.00 | 0.00 | 29 | 1017.2 |
| 20260901183724 | 85 | 141 | 6.0 | 9.0 | 0.00 | 0.00 | 0.00 | 29 | 1017.1 |
| 20260901183322 | 83 | 117 | 5.0 | 10.0 | 0.00 | 0.00 | 0.00 | 29 | 1017.1 |
| 20260901182921 | 83 | 105 | 7.0 | 10.0 | 0.00 | 0.00 | 0.00 | 29 | 1017.1 |
| 20260901182118 | 83 | 162 | 4.0 | 11.0 | 0.00 | 0.00 | 0.00 | 29 | 1017.3 |
| 20260901181316 | 82 | 114 | 7.0 | 11.0 | 0.00 | 0.00 | 0.00 | 30 | 1017.2 |
| 20260901180914 | 83 | 135 | 9.0 | 10.0 | 0.00 | 0.00 | 0.00 | 30 | 1017.3 |
| 20260901180111 | 84 | 121 | 6.0 | 8.0 | 0.00 | 0.00 | 0.00 | 31 | 1017.3 |
| 20260901175309 | 87 | 135 | 1.0 | 6.0 | 0.00 | 0.00 | 0.00 | 31 | 1017.3 |
| 20260901174105 | 85 | 189 | 5.0 | 5.0 | 0.00 | 0.00 | 0.00 | 32 | 1017.3 |
| 20260901171252 | 82 | 148 | 3.0 | 8.0 | 0.00 | 0.00 | 0.00 | 35 | 1017.3 |
| 20260901171225 | 82 | 153 | 1.0 | 3.0 | 0.00 | 0.00 | 0.00 | 36 | 1017.2 |
| 20260901170849 | 82 | 153 | 1.0 | 3.0 | 0.00 | 0.00 | 0.00 | 36 | 1017.2 |
| 20260901170450 | 83 | 210 | 1.0 | 6.0 | 0.00 | 0.00 | 0.00 | 36 | 1017.2 |
| 20260901170049 | 82 | 270 | 1.0 | 6.0 | 0.00 | 0.00 | 0.00 | 36 | 1017.1 |
| 20260901165645 | 80 | 135 | 4.0 | 6.0 | 0.00 | 0.00 | 0.00 | 37 | 1017.1 |
| 20260901165243 | 79 | 137 | 5.0 | 6.0 | 0.00 | 0.00 | 0.00 | 37 | 1017.2 |
| 20260901164843 | 80 | 137 | 3.0 | 7.0 | 0.00 | 0.00 | 0.00 | 38 | 1017.2 |
| 20260901164442 | 80 | 96 | 0.0 | 7.0 | 0.00 | 0.00 | 0.00 | 38 | 1017.2 |
| 20260901163713 | 81 | 135 | 4.0 | 4.0 | 0.00 | 0.00 | 0.00 | 40 | 1017.3 |
| 20260901163639 | 81 | 135 | 4.0 | 4.0 | 0.00 | 0.00 | 0.00 | 40 | 1017.3 |
| 20260901163237 | 79 | 94 | 2.0 | 6.0 | 0.00 | 0.00 | 0.00 | 40 | 1017.2 |
| 20260901162836 | 80 | 145 | 3.0 | 4.0 | 0.00 | 0.00 | 0.00 | 41 | 1017.2 |
| 20260901162434 | 80 | 184 | 5.0 | 6.0 | 0.00 | 0.00 | 0.00 | 42 | 1017.2 |
| 20260901162033 | 79 | 70 | 1.0 | 3.0 | 0.00 | 0.00 | 0.00 | 43 | 1017.2 |
| 20260901161632 | 78 | 165 | 3.0 | 3.0 | 0.00 | 0.00 | 0.00 | 43 | 1017.2 |
| 20260901161231 | 77 | 123 | 3.0 | 6.0 | 0.00 | 0.00 | 0.00 | 43 | 1017.3 |
| 20260901160830 | 78 | 189 | 2.0 | 6.0 | 0.00 | 0.00 | 0.00 | 43 | 1017.3 |
| 20260901160027 | 76 | 157 | 1.0 | 6.0 | 0.00 | 0.00 | 0.00 | 44 | 1017.3 |
| 20260901155626 | 76 | 180 | 3.0 | 5.0 | 0.00 | 0.00 | 0.00 | 45 | 1017.3 |
| 20260901155224 | 76 | 194 | 1.0 | 2.0 | 0.00 | 0.00 | 0.00 | 46 | 1017.3 |
| 20260901154823 | 76 | 198 | 3.0 | 3.0 | 0.00 | 0.00 | 0.00 | 48 | 1017.2 |
| 20260901154422 | 76 | 56 | 2.0 | 5.0 | 0.00 | 0.00 | 0.00 | 48 | 1017.4 |
| 20260901154020 | 76 | 42 | 2.0 | 5.0 | 0.00 | 0.00 | 0.00 | 50 | 1017.3 |
| 20260901153218 | 73 | 85 | 1.0 | 2.0 | 0.00 | 0.00 | 0.00 | 47 | 1017.2 |
| 20260901152819 | 73 | 67 | 1.0 | 2.0 | 0.00 | 0.00 | 0.00 | 47 | 1017.1 |
| 20260901152416 | 73 | 119 | 0.0 | 0.0 | 0.00 | 0.00 | 0.00 | 48 | 1017.1 |
| 20260901152015 | 72 | 182 | 0.0 | 2.0 | 0.00 | 0.00 | 0.00 | 48 | 1017.1 |
| 20260901151613 | 71 | 229 | 2.0 | 2.0 | 0.00 | 0.00 | 0.00 | 49 | 1017.1 |
| 20260901150409 | 67 | 135 | 1.0 | 1.0 | 0.00 | 0.00 | 0.00 | 50 | 1016.9 |
| 20260901145607 | 66 | 297 | 0.0 | 1.0 | 0.00 | 0.00 | 0.00 | 50 | 1016.8 |
| 20260901144804 | 65 | 22 | 1.0 | 2.0 | 0.00 | 0.00 | 0.00 | 51 | 1016.7 |
| 20260901144403 | 64 | 310 | 1.0 | 1.0 | 0.00 | 0.00 | 0.00 | 51 | 1016.6 |
| 20260901144001 | 64 | 328 | 0.0 | 1.0 | 0.00 | 0.00 | 0.00 | 51 | 1016.6 |
| 20260901143601 | 63 | 333 | 1.0 | 1.0 | 0.00 | 0.00 | 0.00 | 51 | 1016.5 |
| 20260901143159 | 62 | 42 | 0.0 | 1.0 | 0.00 | 0.00 | 0.00 | 51 | 1016.5 |
| 20260901141955 | 60 | 42 | 0.0 | 0.0 | 0.00 | 0.00 | 0.00 | 52 | 1016.3 |
| 20260901141553 | 59 | 45 | 0.0 | 0.0 | 0.00 | 0.00 | 0.00 | 52 | 1016.4 |
| 20260901141152 | 58 | 42 | 0.0 | 1.0 | 0.00 | 0.00 | 0.00 | 52 | 1016.3 |
| 20260901140752 | 58 | 78 | 0.0 | 0.0 | 0.00 | 0.00 | 0.00 | 52 | 1016.2 |
| 20260901135949 | 57 | 184 | 0.0 | 0.0 | 0.00 | 0.00 | 0.00 | 52 | 1016.2 |
| 20260901135146 | 57 | 189 | 0.0 | 0.0 | 0.00 | 0.00 | 0.00 | 52 | 1016.2 |
| 20260901133942 | 56 | 270 | 0.0 | 0.0 | 0.00 | 0.00 | 0.00 | 52 | 1016.0 |
| 20260901133542 | 56 | 279 | 0.0 | 0.0 | 0.00 | 0.00 | 0.00 | 52 | 1016.0 |
| 20260901132741 | 56 | 279 | 0.0 | 0.0 | 0.00 | 0.00 | 0.00 | 52 | 1016.1 |
| 20260901131936 | 56 | 308 | 0.0 | 0.0 | 0.00 | 0.00 | 0.00 | 52 | 1016.0 |
| 20260901131534 | 56 | 328 | 0.0 | 0.0 | 0.00 | 0.00 | 0.00 | 51 | 1016.0 |
| 20260901131133 | 56 | 292 | 0.0 | 1.0 | 0.00 | 0.00 | 0.00 | 52 | 1016.0 |
| 20260901130731 | 57 | 317 | 0.0 | 0.0 | 0.00 | 0.00 | 0.00 | 51 | 1016.1 |
| 20260901125929 | 57 | 294 | 0.0 | 1.0 | 0.00 | 0.00 | 0.00 | 51 | 1016.0 |
| 20260901125529 | 57 | 81 | 0.0 | 1.0 | 0.00 | 0.00 | 0.00 | 51 | 1016.0 |
| 20260901124725 | 57 | 288 | 1.0 | 1.0 | 0.00 | 0.00 | 0.00 | 51 | 1016.1 |
| 20260901124324 | 56 | 283 | 0.0 | 0.0 | 0.00 | 0.00 | 0.00 | 51 | 1016.0 |
| 20260901123522 | 56 | 330 | 0.0 | 1.0 | 0.00 | 0.00 | 0.00 | 51 | 1015.9 |
| 20260901123121 | 57 | 330 | 0.0 | 0.0 | 0.00 | 0.00 | 0.00 | 51 | 1015.9 |
| 20260901122317 | 57 | 279 | 0.0 | 0.0 | 0.00 | 0.00 | 0.00 | 51 | 1016.0 |
| 20260901121916 | 57 | 274 | 0.0 | 0.0 | 0.00 | 0.00 | 0.00 | 51 | 1015.9 |
| 20260901121515 | 57 | 301 | 0.0 | 1.0 | 0.00 | 0.00 | 0.00 | 51 | 1015.9 |
| 20260901121114 | 57 | 205 | 0.0 | 1.0 | 0.00 | 0.00 | 0.00 | 51 | 1015.9 |
| 20260901120712 | 57 | 186 | 0.0 | 0.0 | 0.00 | 0.00 | 0.00 | 51 | 1015.9 |
| 20260901120311 | 57 | 236 | 0.0 | 0.0 | 0.00 | 0.00 | 0.00 | 51 | 1015.9 |
| 20260901115107 | 58 | 283 | 1.0 | 1.0 | 0.00 | 0.00 | 0.00 | 51 | 1015.9 |
| 20260901114707 | 58 | 288 | 1.0 | 1.0 | 0.00 | 0.00 | 0.00 | 51 | 1015.9 |
| 20260901114305 | 58 | 279 | 1.0 | 1.0 | 0.00 | 0.00 | 0.00 | 51 | 1015.9 |
| 20260901113903 | 58 | 283 | 0.0 | 1.0 | 0.00 | 0.00 | 0.00 | 51 | 1015.9 |
| 20260901113101 | 58 | 301 | 1.0 | 1.0 | 0.00 | 0.00 | 0.00 | 51 | 1016.0 |
| 20260901112700 | 58 | 294 | 0.0 | 0.0 | 0.00 | 0.00 | 0.00 | 50 | 1015.9 |
| 20260901112259 | 58 | 279 | 0.0 | 0.0 | 0.00 | 0.00 | 0.00 | 50 | 1015.9 |
| 20260901110653 | 58 | 330 | 0.0 | 0.0 | 0.00 | 0.00 | 0.00 | 50 | 1015.9 |
| 20260901110253 | 58 | 317 | 0.0 | 0.0 | 0.00 | 0.00 | 0.00 | 1015.8 | |
| 20260901105851 | 58 | 40 | 1.0 | 1.0 | 0.00 | 0.00 | 0.00 | 50 | 1015.9 |
| 20260901105450 | 58 | 326 | 0.0 | 0.0 | 0.00 | 0.00 | 0.00 | 50 | 1015.8 |
| 20260901104648 | 58 | 236 | 0.0 | 0.0 | 0.00 | 0.00 | 0.00 | 49 | |
| 20260901104245 | 58 | 189 | 0.0 | 0.0 | 0.00 | 0.00 | 0.00 | 49 | 1015.9 |
| 20260901103844 | 58 | 288 | 0.0 | 0.0 | 0.00 | 0.00 | 0.00 | 49 | 1015.9 |
| 20260901103443 | 58 | 157 | 0.0 | 0.0 | 0.00 | 0.00 | 0.00 | 49 | 1016.0 |
| 20260901103042 | 58 | 292 | 0.0 | 0.0 | 0.00 | 0.00 | 0.00 | 49 | 1015.9 |
| 20260901102640 | 58 | 346 | 0.0 | 1.0 | 0.00 | 0.00 | 0.00 | 49 | 1015.9 |
| 20260901102240 | 58 | 33 | 1.0 | 1.0 | 0.00 | 0.00 | 0.00 | 49 | 1015.9 |
| 20260901101838 | 58 | 38 | 0.0 | 1.0 | 0.00 | 0.00 | 0.00 | 49 | 1015.9 |
| 20260901100232 | 59 | 139 | 1.0 | 2.0 | 0.00 | 0.00 | 0.00 | 49 | 1016.1 |
| 20260901095833 | 59 | 137 | 1.0 | 1.0 | 0.00 | 0.00 | 0.00 | 49 | 1016.0 |
| 20260901095831 | 59 | 137 | 1.0 | 1.0 | 0.00 | 0.00 | 0.00 | 49 | 1016.0 |
| 20260901095430 | 59 | 150 | 1.0 | 2.0 | 0.00 | 0.00 | 0.00 | 49 | 1016.1 |
| 20260901095029 | 59 | 135 | 0.0 | 1.0 | 0.00 | 0.00 | 0.00 | 49 | 1016.1 |
| 20260901094226 | 58 | 250 | 0.0 | 0.0 | 0.00 | 0.00 | 0.00 | 49 | 1016.1 |
| 20260901093825 | 58 | 301 | 0.0 | 0.0 | 0.00 | 0.00 | 0.00 | 49 | 1016.1 |
| 20260901093424 | 58 | 292 | 0.0 | 0.0 | 0.00 | 0.00 | 0.00 | 49 | 1016.1 |
| 20260901093022 | 58 | 344 | 0.0 | 1.0 | 0.00 | 0.00 | 0.00 | 48 | 1016.0 |
| 20260901092621 | 59 | 353 | 0.0 | 0.0 | 0.00 | 0.00 | 0.00 | 48 | 1015.9 |
| 20260901092220 | 59 | 299 | 0.0 | 0.0 | 0.00 | 0.00 | 0.00 | 48 | 1015.9 |
| 20260901091819 | 59 | 317 | 0.0 | 1.0 | 0.00 | 0.00 | 0.00 | 48 | 1015.8 |
| 20260901091417 | 59 | 321 | 1.0 | 1.0 | 0.00 | 0.00 | 0.00 | 48 | 1015.8 |
| 20260901091016 | 59 | 306 | 0.0 | 0.0 | 0.00 | 0.00 | 0.00 | 48 | 1016.0 |
| 20260901090616 | 59 | 279 | 0.0 | 0.0 | 0.00 | 0.00 | 0.00 | 48 | 1016.0 |
| 20260901090214 | 60 | 283 | 0.0 | 0.0 | 0.00 | 0.00 | 0.00 | 48 | 1016.1 |
| 20260901085813 | 60 | 186 | 0.0 | 0.0 | 0.00 | 0.00 | 0.00 | 48 | 1016.0 |
| 20260901085009 | 60 | 301 | 0.0 | 0.0 | 0.00 | 0.00 | 0.00 | 48 | 1016.1 |
| 20260901084609 | 60 | 42 | 0.0 | 0.0 | 0.00 | 0.00 | 0.00 | 48 | 1016.1 |
| 20260901083848 | 60 | 45 | 0.0 | 0.0 | 0.00 | 0.00 | 0.00 | 47 | 1016.2 |
| 20260901083806 | 60 | 45 | 0.0 | 0.0 | 0.00 | 0.00 | 0.00 | 47 | 1016.2 |
| 20260901083447 | 60 | 33 | 0.0 | 0.0 | 0.00 | 0.00 | 0.00 | 47 | 1016.1 |
| 20260901083405 | 60 | 33 | 0.0 | 0.0 | 0.00 | 0.00 | 0.00 | 47 | 1016.1 |
| 20260901082200 | 60 | 317 | 1.0 | 2.0 | 0.00 | 0.00 | 0.00 | 47 | 1016.1 |
| 20260901081843 | 61 | 45 | 1.0 | 1.0 | 0.00 | 0.00 | 0.00 | 47 | 1016.1 |
| 20260901081800 | 61 | 45 | 1.0 | 1.0 | 0.00 | 0.00 | 0.00 | 47 | 1016.1 |
| 20260901081358 | 61 | 328 | 1.0 | 3.0 | 0.00 | 0.00 | 0.00 | 47 | 1016.1 |
| 20260901080957 | 61 | 40 | 0.0 | 1.0 | 0.00 | 0.00 | 0.00 | 47 | 1016.2 |
| 20260901080556 | 62 | 40 | 0.0 | 1.0 | 0.00 | 0.00 | 0.00 | 46 | 1016.2 |
| 20260901080154 | 62 | 139 | 1.0 | 1.0 | 0.00 | 0.00 | 0.00 | 46 | 1016.1 |
| 20260901075753 | 62 | 139 | 0.0 | 1.0 | 0.00 | 0.00 | 0.00 | 46 | 1016.1 |
| 20260901074951 | 62 | 139 | 1.0 | 1.0 | 0.00 | 0.00 | 0.00 | 46 | 1016.1 |
| 20260901074549 | 62 | 137 | 1.0 | 1.0 | 0.00 | 0.00 | 0.00 | 46 | 1016.2 |
| 20260901074148 | 62 | 184 | 0.0 | 1.0 | 0.00 | 0.00 | 0.00 | 46 | 1016.2 |
| 20260901073346 | 62 | 135 | 1.0 | 2.0 | 0.00 | 0.00 | 0.00 | 46 | 1016.2 |
| 20260901072944 | 63 | 139 | 1.0 | 2.0 | 0.00 | 0.00 | 0.00 | 46 | 1016.2 |